Location: Asheville, NC
(35.6000°N, 82.5500°W)
Time: 00:29:00
(UTC-04:00)

DOVE 4 - Pass Details

Date: 10 March 2018
Orbit: 589 x 802 km, 97.7° (Epoch: 22 June)

Event Time Altitude Azimuth Distance (km) Brightness Sun altitude
Rises 05:27:45 0° 6° (N) 3,311 ? -17.1°
Reaches altitude 10° 05:30:10 10° 2° (N) 2,366 ? -16.6°
Maximum altitude 05:35:16 55° 286° (WNW) 929 ? -15.6°
Drops below altitude 10° 05:40:10 10° 210° (SSW) 2,262 ? -14.6°
Sets 05:42:26 0° 205° (SSW) 3,152 ? -14.1°
